Temp
76 76 76 75 75 76 75 75 76 76 76 77 77 77 77 79 79 79 79 79 79 79 78 78 78 78 81 80 79 79 78 77 77 76 76 77 77 79 80 80 80 78
76 77 77 77 75 76 76 77 77 77 76 76 78 78 78 79 80 80 79 79 79 80 79 79 79 78 78 79 78 78 77 77 77 82 79 77 77 79 80 80 80 79
77 77 77 77 77 76 78 78 78 77 78 79 80 79 80 81 81 79 79 80 80 81 79 79 79 79 79 78 77 78 78 76 77 79 78 77 77 77 77 80 79 80
77 78 79 79 79 78 79 78 78 78 79 78 79 82 83 84 82 81 79 81 79 80 81 80 80 80 79 79 77 77 77 76 78 78 78 78 78 78 79 78 79 79
79 79 79 80 80 80 79 79 80 79 80 80 81 81 81 81 82 81 80 80 79 80 79 80 80 80 79 78 78 77 77 77 77 77 77 77 77 78 80 79 77 78
79 79 79 80 80 80 80 80 81 82 81 82 81 82 82 82 82 83 81 81 81 81 82 81 81 81 81 79 78 78 79 78 78 77 77 77 78 78 82 80 77 77
80 80 80 81 81 81 81 81 82 82 83 83 82 82 82 82 82 82 82 81 81 81 82 81 79 80 79 79 77 77 77 78 78 77 77 77 77 77 78 78 77 77
79 82 81 82 81 82 81 82 83 82 83 83 82 82 83 83 82 83 83 83 82 81 81 81 80 79 81 80 78 78 78 81 79 77 76 76 76 76 76 78 78 75
74 78 82 82 82 82 82 83 83 84 84 83 84 83 83 84 83 83 82 83 83 82 80 81 79 80 80 80 79 79 79 80 81 78 77 77 76 76 77 77 76 75
74 74 74 73 77 82 83 83 84 84 84 84 85 85 84 84 84 84 81 79 80 81 80 81 80 79 80 80 79 79 79 79 79 78 78 78 78 78 78 77 75 73
74 74 73 73 74 76 79 82 84 85 84 84 85 85 85 84 83 84 81 79 81 81 81 80 81 81 79 79 80 80 80 79 78 78 78 78 79 77 78 74 74 73
73 73 73 73 73 75 77 79 81 84 85 86 85 85 85 85 84 84 84 80 80 80 82 81 80 80 79 79 80 81 80 80 79 79 78 78 77 75 74 73 73 72
72 73 72 73 74 75 76 77 79 81 81 82 84 86 86 86 85 83 82 82 81 82 81 80 80 80 79 78 79 80 79 79 79 79 79 77 77 75 74 73 73 73
72 73 73 73 74 75 75 76 78 80 80 79 79 79 84 86 85 84 83 83 83 83 83 82 79 79 79 79 79 80 80 80 80 79 78 77 76 75 75 73 73 73
72 73 73 74 75 74 75 75 75 76 77 77 77 77 78 79 83 85 84 82 82 83 82 82 81 81 82 80 80 80 80 80 79 79 78 76 75 75 74 74 73 73
71 72 72 72 73 73 74 75 75 74 73 73 75 75 75 75 75 80 84 84 83 82 82 81 81 84 84 83 83 82 80 82 80 79 77 76 75 74 73 72 73 73
71 70 71 71 72 73 73 74 72 72 72 73 75 75 74 74 76 77 82 84 84 83 82 80 82 84 84 76 76 82 82 80 80 78 77 76 75 74 72 71 72 72
70 70 71 71 72 72 73 73 72 72 73 73 73 75 75 74 74 74 77 83 85 84 82 81 82 83 76 74 75 76 83 82 80 78 76 74 74 73 72 71 71 72
69 69 69 70 72 73 73 73 73 73 72 73 73 75 74 73 72 73 74 75 81 81 81 82 82 80 73 73 73 74 78 84 76 72 71 69 70 71 71 71 72 73
68 68 68 69 71 72 72 72 72 72 72 72 73 73 73 74 73 72 73 72 75 78 79 81 81 80 72 72 72 72 74 78 74 74 72 70 70 70 71 72 73 73
67 67 67 68 69 70 71 71 72 72 72 72 72 71 72 72 73 74 74 73 74 74 76 79 80 75 71 72 70 71 72 79 76 75 73 72 72 72 71 73 73 74
66 66 66 67 68 69 69 69 70 71 71 72 72 70 71 71 72 73 73 73 72 73 74 74 75 68 68 70 69 69 73 79 75 74 73 72 71 71 71 72 73 73
65 65 66 67 68 68 68 68 68 69 70 71 71 70 70 70 70 71 72 71 72 73 73 71 71 66 64 66 67 66 74 76 74 73 72 71 70 70 70 71 72 73
66 66 66 67 67 67 68 69 69 69 69 71 71 70 70 70 70 69 69 70 72 72 72 72 71 67 63 62 63 65 76 75 73 72 70 69 68 69 69 71 74 75
66 66 66 66 65 66 68 69 69 70 71 71 71 71 71 70 70 69 69 69 71 72 75 73 70 66 61 61 62 64 73 74 73 70 68 68 67 66 67 67 69 73
66 66 66 65 65 65 66 66 67 69 69 69 70 70 69 69 69 69 68 68 69 70 69 69 66 65 62 58 61 63 68 73 70 69 68 67 67 67 65 65 65 64
MSLP
1013.41 1013.57 1013.73 1013.85 1013.93 1013.93 1014.09 1014.29 1014.33 1014.53 1014.61 1014.61 1014.81 1014.85 1014.85 1014.73 1014.69 1014.81 1014.93 1015.05 1015.17 1015.25 1015.29 1015.29 1015.33 1015.45 1015.45 1015.49 1015.53 1015.61 1015.73 1015.81 1015.81 1015.77 1015.89 1016.01 1016.17 1016.21 1016.33 1016.17 1016.01 1016.01
1013.29 1013.29 1013.37 1013.53 1013.69 1013.65 1013.73 1013.77 1013.97 1014.17 1014.33 1014.33 1014.33 1014.41 1014.41 1014.45 1014.49 1014.57 1014.77 1014.93 1015.01 1015.09 1015.05 1015.13 1015.21 1015.29 1015.41 1015.49 1015.49 1015.57 1015.65 1015.69 1015.81 1015.53 1015.85 1016.05 1016.05 1016.01 1016.05 1015.93 1015.89 1015.73
1013.25 1013.21 1013.25 1013.41 1013.53 1013.53 1013.49 1013.49 1013.61 1013.77 1013.93 1013.93 1013.93 1014.05 1014.21 1014.13 1014.33 1014.37 1014.45 1014.61 1014.85 1014.89 1014.97 1014.97 1015.09 1015.13 1015.25 1015.33 1015.37 1015.45 1015.53 1015.65 1015.81 1015.61 1015.69 1015.89 1015.77 1015.85 1015.77 1015.65 1015.65 1015.65
1013.21 1012.97 1012.93 1012.97 1013.05 1013.17 1013.17 1013.37 1013.45 1013.49 1013.53 1013.73 1013.81 1013.73 1013.77 1013.85 1013.97 1014.17 1014.29 1014.37 1014.61 1014.73 1014.73 1014.85 1014.93 1014.97 1015.05 1015.13 1015.21 1015.33 1015.33 1015.45 1015.45 1015.49 1015.69 1015.65 1015.61 1015.61 1015.65 1015.53 1015.57 1015.49
1013.01 1012.89 1012.69 1012.65 1012.65 1012.73 1012.89 1013.17 1013.29 1013.25 1013.33 1013.33 1013.41 1013.41 1013.53 1013.61 1013.77 1013.97 1014.09 1014.25 1014.41 1014.57 1014.61 1014.73 1014.77 1014.89 1014.89 1015.01 1015.01 1015.25 1015.29 1015.41 1015.33 1015.45 1015.65 1015.77 1015.53 1015.53 1015.45 1015.45 1015.57 1015.65
1012.65 1012.57 1012.49 1012.49 1012.41 1012.53 1012.73 1012.81 1012.81 1012.93 1013.01 1013.13 1013.21 1013.17 1013.25 1013.29 1013.49 1013.65 1013.81 1014.05 1014.13 1014.29 1014.41 1014.49 1014.61 1014.65 1014.69 1014.85 1014.97 1015.05 1015.13 1015.29 1015.21 1015.33 1015.57 1015.69 1015.61 1015.37 1015.37 1015.41 1015.57 1015.65
1012.41 1012.37 1012.33 1012.25 1012.29 1012.25 1012.41 1012.45 1012.45 1012.53 1012.65 1012.69 1012.77 1013.01 1012.97 1013.17 1013.29 1013.37 1013.49 1013.65 1013.81 1013.97 1014.13 1014.25 1014.45 1014.53 1014.53 1014.69 1014.89 1015.01 1015.01 1015.01 1015.05 1015.21 1015.41 1015.49 1015.49 1015.45 1015.29 1015.33 1015.41 1015.53
1012.49 1011.89 1011.97 1011.97 1012.17 1012.17 1012.29 1012.21 1012.25 1012.33 1012.37 1012.45 1012.77 1012.69 1012.69 1012.89 1013.01 1013.01 1013.13 1013.29 1013.53 1013.69 1013.77 1013.81 1013.97 1014.17 1014.25 1014.45 1014.77 1014.93 1014.97 1014.85 1015.01 1015.13 1015.25 1015.33 1015.37 1015.49 1015.33 1015.21 1015.25 1015.45
1013.13 1012.57 1011.81 1011.85 1012.05 1012.09 1012.13 1012.09 1012.05 1012.05 1011.97 1012.29 1012.41 1012.49 1012.41 1012.53 1012.69 1012.77 1012.85 1012.97 1013.17 1013.29 1013.45 1013.61 1013.73 1013.89 1013.97 1014.17 1014.41 1014.61 1014.77 1014.77 1014.73 1014.89 1015.09 1015.25 1015.33 1015.25 1015.17 1015.05 1015.21 1015.37
1013.29 1013.29 1013.33 1013.25 1012.77 1012.09 1011.93 1011.81 1011.77 1011.77 1011.73 1011.93 1012.01 1012.05 1012.29 1012.21 1012.25 1012.45 1012.61 1012.77 1012.97 1013.05 1013.13 1013.29 1013.49 1013.65 1013.81 1013.85 1014.01 1014.17 1014.41 1014.53 1014.53 1014.65 1014.77 1014.85 1014.93 1014.93 1014.97 1015.13 1015.33 1015.45
1013.09 1013.57 1013.85 1013.85 1013.29 1012.45 1012.05 1011.77 1011.57 1011.49 1011.49 1011.65 1011.73 1011.89 1011.89 1012.01 1012.09 1012.05 1012.37 1012.61 1012.77 1012.85 1012.93 1013.05 1013.13 1013.25 1013.53 1013.69 1013.69 1013.73 1013.89 1014.09 1014.21 1014.33 1014.45 1014.53 1014.53 1014.65 1014.77 1014.81 1014.93 1015.09
1012.41 1012.45 1012.57 1012.33 1012.17 1012.21 1011.85 1011.57 1011.57 1011.41 1011.25 1011.21 1011.29 1011.57 1011.61 1011.69 1011.89 1011.93 1012.05 1012.37 1012.41 1012.45 1012.49 1012.61 1012.73 1012.93 1013.13 1013.33 1013.41 1013.41 1013.53 1013.65 1013.77 1013.97 1014.09 1014.21 1014.37 1014.41 1014.49 1014.57 1014.73 1014.81
1012.53 1012.57 1012.49 1012.41 1012.25 1012.09 1011.77 1011.69 1011.65 1011.57 1011.41 1011.25 1011.01 1011.09 1011.29 1011.49 1011.49 1011.69 1011.69 1011.85 1012.01 1012.09 1012.25 1012.33 1012.45 1012.57 1012.81 1012.97 1013.09 1013.13 1013.25 1013.41 1013.57 1013.69 1013.81 1014.01 1014.01 1014.05 1014.13 1014.25 1014.37 1014.49
1012.05 1012.01 1012.01 1011.85 1011.61 1011.57 1011.61 1011.53 1011.37 1011.33 1011.37 1011.21 1011.05 1011.17 1011.13 1011.05 1011.17 1011.37 1011.37 1011.41 1011.53 1011.69 1011.73 1011.89 1012.13 1012.33 1012.45 1012.57 1012.73 1012.81 1012.97 1013.09 1013.17 1013.37 1013.65 1013.81 1013.77 1013.77 1013.97 1014.13 1014.21 1014.25
1011.61 1011.53 1011.53 1011.61 1011.57 1011.49 1011.37 1011.29 1011.25 1011.25 1011.41 1011.65 1011.41 1011.17 1011.05 1011.05 1010.81 1010.81 1011.09 1011.29 1011.29 1011.33 1011.41 1011.49 1011.77 1011.97 1012.05 1012.25 1012.45 1012.57 1012.57 1012.81 1012.93 1013.09 1013.37 1013.65 1013.73 1013.73 1013.85 1013.93 1014.13 1014.09
1011.45 1011.45 1011.45 1011.41 1011.49 1011.49 1011.37 1011.25 1011.37 1011.85 1011.97 1011.85 1011.65 1011.29 1011.05 1010.89 1010.85 1010.73 1010.69 1010.85 1011.09 1011.17 1011.17 1011.29 1011.45 1011.41 1011.41 1011.49 1011.69 1012.01 1012.29 1012.41 1012.57 1012.73 1013.05 1013.29 1013.57 1013.81 1013.93 1013.93 1013.93 1013.97
1011.49 1011.45 1011.41 1011.45 1011.33 1011.29 1011.25 1011.25 1011.81 1012.01 1011.53 1011.09 1010.89 1010.89 1010.93 1010.89 1010.77 1010.73 1010.57 1010.45 1010.57 1010.81 1011.01 1011.05 1011.05 1010.97 1010.97 1011.17 1011.37 1011.45 1011.69 1012.01 1012.25 1012.45 1012.61 1012.85 1013.13 1013.41 1013.69 1013.85 1013.93 1013.97
1011.61 1011.45 1011.41 1011.33 1011.25 1011.21 1011.09 1011.17 1011.45 1011.33 1011.13 1011.05 1010.97 1010.93 1010.89 1010.85 1010.85 1010.69 1010.49 1010.17 1010.13 1010.29 1010.57 1010.69 1010.73 1010.53 1010.65 1010.85 1010.97 1011.13 1011.25 1011.57 1011.73 1012.01 1012.33 1012.61 1012.81 1013.09 1013.37 1013.65 1013.85 1013.97
1011.61 1011.57 1011.49 1011.33 1011.13 1010.97 1010.89 1010.89 1011.09 1011.01 1010.97 1010.93 1010.85 1010.57 1010.57 1010.77 1010.73 1010.57 1010.49 1010.25 1010.01 1010.17 1010.29 1010.29 1010.37 1010.21 1010.37 1010.49 1010.61 1010.77 1010.93 1011.09 1011.81 1012.81 1013.57 1014.05 1014.25 1014.05 1013.41 1013.53 1013.73 1013.85
1011.61 1011.49 1011.53 1011.37 1011.09 1010.89 1010.77 1010.77 1010.81 1010.89 1010.77 1010.57 1010.49 1010.53 1010.49 1010.45 1010.45 1010.49 1010.33 1010.29 1010.05 1009.85 1009.93 1009.89 1009.93 1009.85 1010.01 1010.17 1010.33 1010.49 1010.69 1011.09 1011.61 1011.89 1012.49 1012.81 1013.21 1013.89 1014.09 1013.53 1013.45 1013.61
1011.69 1011.53 1011.45 1011.37 1011.17 1010.93 1010.81 1010.73 1010.69 1010.65 1010.69 1010.57 1010.45 1010.49 1010.49 1010.41 1010.33 1010.41 1010.29 1010.17 1010.09 1009.85 1009.65 1009.65 1009.57 1009.41 1009.61 1009.77 1010.01 1010.21 1010.61 1010.89 1011.37 1011.73 1012.21 1012.61 1012.93 1013.21 1013.45 1013.13 1013.17 1013.33
1011.73 1011.69 1011.49 1011.33 1011.21 1011.05 1010.89 1010.81 1010.69 1010.61 1010.61 1010.41 1010.33 1010.29 1010.29 1010.33 1010.25 1010.21 1010.29 1010.25 1010.13 1009.89 1009.81 1009.61 1009.33 1009.33 1009.41 1009.53 1009.77 1010.13 1010.45 1010.69 1011.17 1011.57 1012.09 1012.49 1012.81 1013.09 1013.25 1012.97 1012.93 1013.13
1011.65 1011.65 1011.53 1011.29 1011.09 1010.97 1010.85 1010.73 1010.65 1010.57 1010.45 1010.21 1010.33 1010.25 1010.37 1010.45 1010.41 1010.37 1010.45 1010.81 1010.85 1010.25 1010.01 1009.77 1009.57 1009.45 1009.53 1009.53 1009.65 1010.01 1010.25 1010.73 1011.13 1011.53 1012.01 1012.57 1012.85 1012.93 1012.89 1012.81 1012.85 1012.97
1011.61 1011.53 1011.45 1011.25 1011.13 1010.93 1010.65 1010.45 1010.25 1010.17 1010.21 1010.05 1010.21 1010.29 1010.37 1010.29 1010.33 1010.57 1010.73 1010.73 1010.49 1010.17 1009.85 1009.85 1009.65 1009.77 1009.93 1009.85 1009.93 1009.85 1009.85 1010.49 1010.97 1011.53 1012.21 1012.57 1012.85 1012.89 1012.85 1012.77 1012.73 1012.73
1011.61 1011.49 1011.45 1011.33 1011.21 1010.93 1010.53 1010.21 1010.05 1009.97 1009.81 1009.73 1009.85 1009.97 1010.05 1010.01 1010.09 1010.33 1010.45 1010.29 1010.09 1009.85 1009.69 1009.69 1009.69 1009.89 1010.13 1010.17 1010.05 1010.09 1010.13 1010.53 1010.89 1011.45 1012.17 1012.61 1012.77 1013.09 1013.09 1013.05 1012.89 1012.85
1011.69 1011.57 1011.41 1011.33 1011.25 1010.97 1010.69 1010.45 1010.13 1009.93 1009.81 1009.73 1009.69 1009.73 1009.89 1009.97 1010.01 1010.13 1010.29 1010.21 1010.01 1009.89 1009.93 1009.89 1009.93 1009.97 1010.13 1010.13 1010.13 1010.17 1010.13 1010.29 1011.09 1011.97 1012.29 1012.57 1012.77 1012.89 1013.21 1013.29 1013.25 1013.25
Wind_Speed
7 6 6 6 6 6 6 6 6 6 6 5 6 6 6 6 5 5 6 6 6 6 6 5 5 5 6 5 5 4 4 4 3 2 2 2 4 5 6 6 5 5
9 8 6 6 5 6 6 6 7 6 6 6 6 5 5 5 6 6 6 6 7 7 7 7 6 5 5 5 5 5 4 3 4 2 3 3 4 5 6 7 6 3
8 9 9 8 8 8 8 7 7 7 7 7 6 6 6 6 6 6 6 7 7 7 7 6 6 6 6 6 5 4 4 3 4 4 3 4 3 3 3 4 3 3
9 9 9 9 8 8 8 7 6 6 6 6 6 7 7 7 7 7 6 7 6 7 7 6 7 6 6 6 6 5 4 4 4 4 4 3 3 3 4 3 2 3
10 9 9 9 8 8 8 8 8 7 7 6 6 7 8 8 7 7 7 7 7 8 7 7 7 7 6 6 5 5 4 5 4 4 4 5 4 3 3 3 2 2
9 9 9 9 9 9 8 8 8 7 7 7 8 6 8 8 8 7 7 8 8 9 8 8 8 8 7 6 6 6 6 5 5 4 5 5 5 4 4 3 3 3
10 10 11 9 9 9 8 8 7 7 7 7 6 7 7 8 8 8 7 7 8 9 9 8 8 8 7 6 6 6 6 6 6 5 5 5 4 5 3 3 3 4
9 10 10 9 9 8 8 9 9 8 8 7 8 8 7 8 8 8 8 8 8 8 8 9 9 9 8 7 7 7 7 6 6 6 5 5 4 4 5 5 4 4
6 9 8 10 10 7 8 9 8 8 8 8 8 7 7 8 8 9 8 9 9 7 8 7 8 8 8 8 8 8 8 7 7 6 6 6 5 6 6 4 4 2
8 7 7 10 6 5 9 8 7 8 8 9 9 8 8 8 8 9 8 8 9 9 8 7 7 7 7 8 9 9 8 8 7 6 6 6 6 7 5 0 0 2
5 2 4 1 7 6 5 4 6 7 7 9 10 9 9 8 8 8 7 8 9 9 9 9 8 8 7 7 8 8 9 8 8 7 7 7 7 4 4 5 4 3
7 9 11 13 13 9 7 5 4 5 7 9 9 10 10 9 9 9 8 8 8 9 10 10 9 8 8 8 8 9 9 8 8 7 8 7 4 5 5 4 4 3
4 4 4 5 5 6 6 6 7 6 3 2 5 10 10 10 9 9 9 9 10 9 9 9 10 9 9 8 8 9 9 9 8 8 7 5 7 8 6 5 4 4
4 5 5 6 6 6 7 8 7 6 4 2 1 1 6 10 10 9 9 9 10 10 10 9 9 9 9 9 8 9 9 9 9 8 6 7 8 6 5 6 5 5
4 4 4 5 4 3 3 5 6 6 5 4 2 1 1 3 5 9 10 10 9 10 10 9 8 9 8 8 9 9 8 9 8 8 6 8 8 7 6 6 6 6
3 4 4 4 5 5 5 5 2 3 4 2 4 4 3 3 3 5 9 11 10 10 10 9 8 8 10 15 12 9 9 8 8 8 7 8 8 7 6 5 6 6
3 4 4 5 5 5 4 3 6 4 6 7 7 5 3 3 3 3 7 8 10 10 10 9 9 8 15 16 16 16 10 9 9 7 8 9 9 9 8 7 5 4
3 2 3 4 5 5 5 3 7 8 8 6 6 6 4 1 3 4 5 8 9 10 11 10 9 12 16 16 17 17 14 9 8 7 5 7 9 9 7 7 6 6
3 3 2 3 5 5 5 4 6 8 8 7 8 6 4 3 3 3 4 4 6 8 10 10 10 14 16 17 17 17 17 11 5 9 4 4 8 5 5 7 6 6
3 4 3 3 3 4 4 4 4 7 7 6 5 4 5 5 5 5 4 4 4 7 9 9 10 13 17 17 17 17 17 9 10 11 7 8 9 7 6 6 8 7
4 4 5 4 4 4 4 4 4 4 5 6 6 6 7 8 8 7 5 4 3 3 5 9 8 14 17 19 18 17 14 11 9 9 8 8 9 7 6 7 7 7
3 5 6 6 6 5 4 4 4 5 5 5 5 4 3 4 4 4 5 3 3 3 3 5 6 8 14 17 17 14 15 9 9 9 8 7 6 6 6 5 7 8
4 4 5 6 6 5 5 5 4 5 5 4 4 4 4 4 5 5 0 2 6 5 4 4 4 5 8 13 14 14 12 7 8 8 8 8 6 5 5 5 6 8
5 5 6 6 6 7 5 4 5 4 5 4 5 4 5 5 4 3 3 6 7 7 6 5 5 1 3 4 9 15 13 10 9 10 9 9 7 5 4 5 9 15
5 4 4 5 6 6 6 3 3 4 3 4 5 5 6 5 4 4 5 6 7 7 7 7 5 1 3 2 5 10 7 5 8 9 10 8 8 6 4 4 4 8
5 6 5 5 5 5 5 5 4 3 2 3 3 3 3 3 3 3 4 5 4 4 3 3 3 3 3 5 4 4 7 11 9 8 8 7 7 8 7 5 5 4
Wind_Direction
198 195 196 194 193 190 182 183 187 195 203 198 196 205 203 208 204 198 196 197 204 203 207 213 219 228 239 238 216 196 184 196 214 208 224 228 238 245 260 266 265 249
201 198 200 196 193 196 196 191 189 194 201 201 201 197 206 205 209 199 192 195 203 208 207 211 216 220 226 224 214 200 213 219 243 232 222 217 240 245 252 256 256 264
205 196 196 196 196 198 199 197 194 196 198 201 199 194 201 203 210 203 202 200 203 208 209 214 217 225 223 220 217 208 204 219 235 248 245 246 234 228 249 258 275 269
210 203 196 197 197 199 197 197 199 199 197 198 202 201 200 203 201 206 209 211 206 210 213 212 217 222 221 213 202 206 207 211 224 232 245 250 236 230 253 255 272 297
207 209 205 200 197 196 195 199 205 200 202 199 199 204 203 202 197 196 203 209 208 213 209 210 213 219 216 213 201 206 207 215 227 222 227 239 251 237 251 253 252 285
206 203 206 205 198 193 197 202 204 206 207 204 201 196 205 205 207 205 197 204 206 210 208 208 210 218 215 216 211 211 214 217 225 214 223 231 246 245 251 245 249 278
202 202 202 204 203 199 200 203 204 206 209 212 205 208 198 205 208 213 208 198 197 200 201 200 205 212 213 211 208 215 219 220 224 210 213 228 228 248 250 262 271 267
255 204 205 200 202 205 207 205 206 203 204 202 205 213 206 203 207 210 218 211 194 194 196 195 201 206 207 200 205 212 219 218 220 210 211 222 213 227 240 240 241 247
249 268 211 204 204 209 210 209 209 209 204 206 208 207 209 209 202 206 210 212 215 205 199 199 194 200 200 196 202 205 212 215 209 201 201 210 215 228 235 226 231 260
303 315 343 0 322 242 216 211 208 208 207 210 212 209 209 215 211 204 199 203 206 211 211 211 200 195 197 199 200 204 208 208 205 200 203 211 218 229 232 206 132 135
259 287 78 314 257 265 290 276 231 213 204 207 209 213 212 211 217 215 198 195 201 204 208 211 213 207 203 205 204 203 204 204 203 202 207 211 219 207 163 176 185 197
179 162 164 192 222 242 241 240 283 269 225 212 208 210 210 208 210 212 211 200 201 201 202 205 207 207 206 207 205 203 202 203 202 203 206 204 172 169 187 175 176 174
198 182 192 232 241 233 235 248 252 261 295 276 229 213 208 211 206 205 211 208 207 199 198 200 203 204 205 203 202 199 197 199 206 207 201 168 180 189 185 185 186 183
198 195 201 218 237 231 214 219 232 251 263 219 36 333 239 216 211 210 208 208 210 208 204 197 195 199 200 201 197 197 197 202 206 208 187 178 195 197 171 182 192 193
191 211 211 219 233 255 252 223 224 226 256 305 317 320 317 289 241 214 206 206 209 206 208 206 201 200 196 195 197 201 200 204 206 208 186 184 198 202 190 192 186 188
204 214 232 237 234 241 237 232 211 70 78 124 282 295 294 287 272 230 208 200 202 206 206 208 209 207 204 199 194 195 199 203 201 204 180 179 184 188 194 196 185 185
230 239 228 231 239 239 237 228 111 157 208 201 200 218 243 275 300 252 220 202 200 203 206 207 209 208 204 197 199 199 192 196 193 188 179 177 180 178 186 181 179 183
328 281 240 237 237 243 239 198 156 195 215 219 223 229 215 250 285 290 264 223 206 205 206 206 208 206 200 198 198 199 196 192 195 181 166 179 177 178 172 168 168 170
338 335 308 262 244 242 242 230 197 206 212 217 224 212 184 202 251 268 288 275 221 208 205 204 207 207 200 199 199 198 199 189 103 68 82 22 358 328 178 167 167 155
335 324 326 306 275 258 251 239 220 209 211 221 231 226 215 220 228 242 251 265 252 206 202 206 202 206 199 198 198 197 202 166 138 165 163 155 173 199 232 178 163 154
327 321 316 316 308 285 261 255 247 230 216 221 224 222 221 225 225 228 239 237 263 276 207 199 211 203 199 199 197 197 183 149 153 157 164 169 177 187 197 173 157 150
325 322 319 319 312 303 280 256 249 241 230 224 227 231 235 250 260 242 239 240 254 264 268 220 211 208 199 197 196 185 168 154 156 161 160 156 156 158 176 165 150 143
333 325 317 309 304 292 272 259 248 242 231 216 224 238 223 213 228 242 302 352 282 275 250 252 246 224 217 204 187 167 170 143 148 145 140 139 135 136 141 142 143 145
326 331 328 325 323 315 287 255 244 233 228 216 215 220 237 229 210 186 183 219 230 229 216 225 242 282 296 239 186 176 170 154 149 141 138 134 130 119 119 131 152 146
336 334 339 332 326 316 316 289 245 234 225 206 211 213 220 222 205 187 194 208 228 236 227 215 213 146 52 67 166 194 154 118 138 137 138 144 138 129 113 107 103 131
343 344 344 351 342 339 335 346 341 329 287 220 199 197 202 193 202 190 190 214 247 269 307 279 191 170 138 116 160 170 152 145 135 146 150 143 142 140 135 127 135 117